Location: Austin
(30.3000°N, 97.7500°W)
Time: 02:23:12
(UTC-05:00)

OAO 2 Rocket - Pass Details

Date: 15 May 2024
Orbit: 672 x 741 km, 35.0° (Epoch: 29 May)

Event Time Altitude Azimuth Distance (km) Brightness Sun altitude
Rises 22:38:19 0° 273° (W) 3,148 7.4 -25.9°
Reaches altitude 10° 22:40:50 10° 279° (W) 2,219 6.5 -26.3°
Maximum altitude 22:45:55 51° 355° (N) 898 4.0 -27.1°
Enters shadow 22:46:59 44° 34° (NE) 993 4.1 -27.2°
